Weather observations for the past three days for
Sherman/Denison, Grayson County Airport
Metric (Imperial)
Date Time (cdt) Wind (kph) Vis. (km) Weather Sky Cond. Temperature (ºC) Relative Humidity Wind Chill (°C) Heat Index (°C) Pressure Precipitation (cm)
Air Dwpt 6 hour altimeter (cm) sea level (mb) 1 hr 3 hr 6 hr
Max. Min.
10 17:50 NE 13 14.48 Thunderstorm in Vicinity BKN100 18 17 94% 76.4 0.0
10 16:50 NE 11 14.48 Dust Storm CLR 18 17 94% 76.33 0.0
10 15:50 E 6 14.48 Thunderstorm in Vicinity Fog/Mist FEW060 BKN075 OVC090 18 17 94% 76.5 0.0
10 14:50 N 24 14.48 Thunderstorm in Vicinity OVC009 18 18 100% 76.43 0.0
10 13:50 NE 15 11.27 Thunderstorm Light Rain FEW007 SCT047 BKN065 OVC075 18 17 94% 76.4 0.0
10 12:50 NE 7 16.09 Thunderstorm in Vicinity FEW070 OVC095 19 18 94% 76.3 0.0
10 11:50 E 13 12.87 Light Rain Thunderstorm in Vicinity BKN050 OVC110 18 17 94% 76.3 0.0
10 10:50 N 31 G 48 2.01 Heavy Rain Fog/Mist Thunderstorm in Vicinity OVC007 17 16 94% 76.35 0.0
10 09:50 NE 17 16.09 Overcast SCT023 BKN060 BKN075 OVC085 20 17 83% 76.15 0.0
10 06:35 SE 15 16.09 Overcast OVC060 18.9 17.6 92% 76.05 0.0
10 06:15 SE 9 16.09 Overcast OVC065 19.2 17.4 89% 76.05 0.0
10 05:55 NE 9 16.09 Light Rain Thunderstorm in Vicinity OVC075 19.3 17.6 90% 76.05 0.0
10 05:35 SE 19 16.09 Overcast OVC080 19.4 17.7 90% 76 0.0
10 05:15 SE 13 16.09 Mostly Cloudy SCT090 BKN140 18.3 17.3 94% 76 0.0
10 04:55 SE 17 16.09 Mostly Cloudy FEW140 SCT230 BKN250 18.5 17 91% 75.97 0.0
10 04:35 SE 13 16.09 Mostly Cloudy BKN130 BKN150 18.4 16.4 88% 76 0.0
10 04:15 E 11 16.09 Thunderstorm in Vicinity FEW100 BKN130 OVC170 17.7 16.7 94% 76.05 0.0
10 03:55 SE 19 16.09 Thunderstorm in Vicinity FEW035 SCT050 SCT070 OVC160 18.5 16.1 86% 75.97 0.0 0.46 1.68
10 03:35 E 24 11.27 Light Rain Thunderstorm in Vicinity BKN055 OVC070 18.1 16.5 90% 75.92 0.0 0.46
10 03:15 W 15 11.27 Thunderstorm Rain OVC085 18.8 16.9 89% 76.15 0.0 0.15
10 02:55 N 28 G 37 14.48 Light Rain SCT080 BKN095 BKN120 BKN140 OVC160 20.7 16.8 78% 76.02 0.0
10 02:35 E 11 16.09 Overcast FEW070 BKN130 OVC160 19.8 18 89% 76.02 0.0
10 02:15 N 28 16.09 Overcast OVC130 19.6 16.6 83% 76.02 0.0
10 01:55 E 17 14.48 Thunderstorm in Vicinity SCT130 OVC160 19.8 17 84% 75.87 0.0 1.22
10 01:35 E 28 14.48 Thunderstorm FEW003 SCT055 OVC160 19.3 16.9 86% 75.9 0.0 1.22
10 01:15 E 35 G 46 3.22 Thunderstorm Heavy Rain Fog/Mist and Breezy SCT003 SCT030 OVC060 20.5 18.6 89% 75.92 0.0 1.14
10 00:55 N 24 6.44 Thunderstorm Heavy Rain Fog/Mist FEW003 BKN030 BKN039 OVC060 22.3 20.4 28.1 22.3 89% 76.07 0.0 0.46 0.46
10 00:35 N 15 16.09 Thunderstorm SCT031 SCT040 OVC065 24 20 78% 24 76.05 0.0
10 00:15 N 19 16.09 Overcast BKN065 BKN130 OVC150 23.7 19.5 77% 76 0.0
09 23:55 NE 20 16.09 Overcast FEW130 BKN150 OVC180 22.5 18.6 79% 75.9 0.0
09 23:35 E 13 16.09 Mostly Cloudy BKN170 23.5 18.2 72% 75.82 0.0
09 23:15 SE 19 16.09 Fair CLR 23.9 18 70% 25 75.72 0.0
09 22:55 SE 15 16.09 Partly Cloudy SCT180 24 17.5 67% 25 75.72 0.0
09 22:35 SE 17 16.09 Fair CLR 24.1 17.3 66% 25 75.69 0.0
09 22:15 SE 17 16.09 Fair CLR 24.2 17.3 65% 25 75.72 0.0
09 21:55 SE 13 16.09 Fair CLR 24.4 17.5 66% 25 75.72 0.0
09 21:35 SE 17 16.09 Fair CLR 24.5 17.6 66% 26 75.72 0.0
09 21:15 SE 13 16.09 Fair CLR 24.4 16.7 62% 25 75.69 0.0
09 20:55 SE 13 16.09 Fair CLR 24.3 17.1 64% 25 75.69 0.0
09 20:35 E 9 16.09 Fair CLR 24.5 17.6 66% 26 75.72 0.0
09 20:15 E 9 16.09 Fair CLR 25.1 17.7 64% 26 75.69 0.0
09 19:55 E 9 16.09 Fair CLR 26.4 18 60% 27 75.69 0.0
09 19:35 E 11 16.09 Fair CLR 26.9 18.3 59% 28 75.67 0.0
09 19:15 E 15 16.09 Fair CLR 27.7 18.1 56% 29 75.67 0.0
09 07:50 Calm 14.48 Partly Cloudy SCT007 20 19 94% 75.87 0.0
09 07:00 E 9 14.48 Fair CLR 19 18 94% 75.79 0.0
09 06:35 E 9 14.48 Fair CLR 18.2 17.7 97% 75.79 0.0
09 06:15 E 6 16.09 Partly Cloudy SCT026 18.5 17.9 96% 75.77 0.0
09 05:55 E 7 16.09 Overcast FEW018 OVC026 18.8 18 95% 75.74 0.0
09 05:35 E 9 16.09 Mostly Cloudy BKN026 18.8 17.9 95% 75.74 0.0
09 05:15 E 9 16.09 Partly Cloudy SCT027 18.6 17.9 96% 75.72 0.0
09 04:55 E 9 16.09 Fair CLR 18.7 17.8 95% 75.72 0.0
09 04:35 E 7 16.09 Fair CLR 18.8 17.9 95% 75.72 0.0
09 04:15 E 7 16.09 A Few Clouds FEW023 18.5 17.8 96% 75.72 0.0
09 03:55 NE 9 16.09 Fair CLR 18.8 17.8 94% 75.74 0.0
09 03:35 NE 9 16.09 Fair CLR 18.9 17.9 94% 75.72 0.0
09 03:15 E 7 16.09 Fair CLR 19.6 18 91% 75.72 0.0
09 02:55 E 13 16.09 Partly Cloudy FEW020 SCT180 20.9 18.4 86% 75.74 0.0
09 02:35 SE 13 16.09 Mostly Cloudy FEW021 BKN180 20.7 18.3 86% 75.74 0.0
09 02:15 E 6 16.09 A Few Clouds FEW026 20.6 18.1 86% 75.77 0.0
09 01:55 SE 13 16.09 Mostly Cloudy BKN021 BKN033 20.6 17.9 85% 75.79 0.0
09 01:35 SE 17 16.09 Overcast BKN021 OVC029 20.6 17.8 84% 75.82 0.0
09 01:15 SE 17 16.09 Overcast OVC021 20.8 17.8 83% 75.82 0.0
09 00:55 E 13 16.09 Overcast OVC018 21 17.9 25 19.6 83% 75.84 0.0
09 00:35 N 9 16.09 Mostly Cloudy BKN018 20.7 17.9 84% 75.9 0.0
09 00:15 NE 17 12.87 Partly Cloudy FEW020 SCT170 20.1 17.7 86% 75.79 0.0
08 23:55 SW 19 12.87 A Few Clouds FEW230 19.9 17.5 86% 75.74 0.0
08 23:35 SW 19 12.87 Partly Cloudy FEW240 SCT280 19.6 17.5 88% 75.77 0.0
08 23:15 SW 13 4.83 A Few Clouds with Haze FEW280 19.9 17.4 86% 75.82 0.0
08 22:55 S 13 16.09 Fair CLR 20 17.3 85% 75.77 0.0
08 22:35 S 7 16.09 Fair CLR 20.7 17.4 81% 75.77 0.0
08 22:15 SE 9 16.09 Thunderstorm in Vicinity FEW240 21.4 17.5 79% 75.74 0.0
08 21:55 SE 11 14.48 Mostly Cloudy BKN230 21.6 17.6 78% 75.74 0.0
08 21:35 S 15 16.09 Partly Cloudy FEW038 SCT230 22.1 17.6 76% 75.74 0.0
08 21:15 S 19 16.09 Mostly Cloudy SCT030 SCT038 BKN065 BKN085 22.5 17.6 74% 75.74 0.0
08 20:55 SE 11 16.09 Partly Cloudy FEW029 SCT065 22.4 17.7 75% 75.74 0.0
08 20:35 SE 15 16.09 Mostly Cloudy BKN030 22.8 17.7 73% 75.69 0.0
08 20:15 S 11 16.09 Overcast OVC029 23.2 17.7 71% 75.69 0.0
08 19:55 S 15 16.09 Overcast OVC031 23.9 17.4 67% 25 75.67 0.0
08 19:35 S 17 16.09 Mostly Cloudy BKN032 24.2 17.4 66% 25 75.67 0.0
08 19:15 S 22 16.09 Fair CLR 24.7 17.4 64% 26 75.64 0.0
08 18:50 S 20 16.09 Fair CLR 25 18 65% 26 75.62 0.0
08 17:50 S 20 16.09 Fair CLR 26 17 58% 27 75.64 0.0
08 16:50 S 13 16.09 Fair CLR 27 17 54% 28 75.67 0.0
08 14:50 S 20 16.09 Fair CLR 26 15 51% 27 75.79 0.0
08 13:50 SE 7 16.09 A Few Clouds FEW055 25 15 54% 26 75.84 0.0
08 11:50 S 19 16.09 Mostly Cloudy BKN065 22 15 65% 76.05 0.0
08 10:50 S 9 16.09 Partly Cloudy SCT080 21 14 64% 76.1 0.0
08 09:50 S 6 16.09 Mostly Cloudy BKN090 17 14 83% 76.12 0.0
08 08:50 S 7 16.09 Mostly Cloudy FEW090 BKN110 16 13 83% 76.15 0.0
08 07:50 S 11 16.09 Mostly Cloudy BKN100 16 14 88% 76.15 0.0
08 07:00 S 11 11.27 Partly Cloudy SCT100 15 13 88% 76.15 0.0
08 06:35 S 9 12.87 A Few Clouds FEW100 13.8 12.2 90% 76.15 0.0
08 06:15 S 15 11.27 Partly Cloudy SCT100 14.2 12.3 88% 76.12 0.0
08 05:55 S 11 14.48 Partly Cloudy SCT110 13.4 12 91% 76.1 0.0
08 05:35 S 11 14.48 Partly Cloudy SCT110 14.4 12.2 87% 76.1 0.0
08 05:15 S 11 12.87 A Few Clouds FEW110 13.5 11.9 90% 76.07 0.0
08 04:55 S 13 14.48 Partly Cloudy SCT130 13.7 12 90% 76.07 0.0
08 04:35 S 15 12.87 Fair CLR 13.4 11.6 89% 76.1 0.0
08 04:15 SE 13 14.48 Fair CLR 14.8 12.1 84% 76.07 0.0
08 03:55 S 11 14.48 A Few Clouds FEW190 13.9 11.6 86% 76.12 0.0
08 03:35 S 13 14.48 Mostly Cloudy BKN190 13.5 11.5 88% 76.12 0.0
08 03:15 S 9 12.87 Partly Cloudy FEW140 SCT180 13.4 11.3 87% 76.15 0.0
08 02:55 S 13 12.87 Fair CLR 12.9 11.1 89% 76.17 0.0
08 02:35 S 7 14.48 Fair CLR 14 11.2 83% 76.15 0.0
08 02:15 S 7 12.87 Fair CLR 13.5 11.3 87% 76.15 0.0
08 01:55 S 11 12.87 Partly Cloudy SCT140 13.6 11.6 88% 76.2 0.0
08 01:35 S 9 14.48 Mostly Cloudy BKN140 13.7 11.7 88% 76.2 0.0
08 01:15 S 11 14.48 Partly Cloudy SCT140 14.6 11.8 83% 76.2 0.0
08 00:55 S 11 14.48 Mostly Cloudy BKN130 15.5 11.9 21.7 15.1 79% 76.23 0.0
08 00:35 S 11 14.48 Overcast OVC130 15.8 12 78% 76.23 0.0
08 00:15 S 15 14.48 Partly Cloudy SCT130 15.2 12 81% 76.23 0.0
07 23:55 S 11 14.48 A Few Clouds FEW130 15.8 12.3 80% 76.23 0.0
07 23:35 S 11 14.48 A Few Clouds FEW130 15.8 12.4 80% 76.23 0.0
07 23:15 S 11 12.87 Fair CLR 16.2 12.3 78% 76.23 0.0
07 22:55 S 7 14.48 Fair CLR 16.2 12 76% 76.23 0.0
07 22:35 S 13 16.09 Fair CLR 16.7 11.8 73% 76.23 0.0
07 22:15 SE 13 16.09 Fair CLR 17 11 68% 76.2 0.0
07 21:55 SE 15 16.09 Fair CLR 17.5 9.4 59% 76.2 0.0
07 21:35 SE 11 14.48 Fair CLR 17.6 9.2 58% 76.17 0.0
07 21:15 SE 11 14.48 Fair CLR 17.8 9.6 59% 76.17 0.0
07 20:55 SE 11 16.09 Fair CLR 18.2 9.8 58% 76.15 0.0
07 20:35 SE 9 16.09 Fair CLR 18.6 9.6 56% 76.12 0.0
07 20:15 SE 9 14.48 Fair CLR 19 9.5 54% 76.12 0.0
07 19:55 SE 7 14.48 A Few Clouds FEW310 19.7 9.1 51% 76.15 0.0
07 19:35 SE 6 14.48 Fair CLR 20.5 8 45% 76.15 0.0
07 19:15 E 6 14.48 Fair CLR 20.5 8.4 46% 76.15 0.0
07 18:50 Calm 16.09 Fair CLR 22 9 44% 76.15 0.0
Date Time (cdt) Wind (kph) Vis. (km) Weather Sky Cond. Air Dwpt Max. Min. Relative Humidity Wind Chill (°C) Heat Index (°C) altimeter (cm) sea level (mb) 1 hr 3 hr 6 hr
6 hour
Temperature (ºC) Pressure Precipitation (cm)